Location: Étouvelles
(49.5207°N, 3.5808°E)
Time: 06:24:06
(UTC+00:00)

Cosmos 2219 Rocket - Visible Passes

Search period start: 24 September 2023 00:00
Search period end: 04 October 2023 00:00
Orbit: 828 x 845 km, 71.0° (Epoch: 23 September)

Date Brightness Start Highest point End Pass type
(mag) Time Alt. Az. Time Alt. Az. Time Alt. Az.
24 Sep 5.0 02:09:18 10° N 02:12:32 15° NNE 02:15:46 10° ENE visible
24 Sep 3.0 03:52:19 10° NNW 03:57:51 53° NE 04:03:22 10° SE visible
24 Sep 2.4 18:47:10 10° S 18:52:26 45° ESE 18:57:44 10° NE visible
24 Sep 3.6 20:31:19 10° WSW 20:36:30 37° NW 20:41:42 10° NNE visible
24 Sep 5.1 22:20:05 10° NW 22:22:12 12° NNW 22:24:19 10° N visible
25 Sep 5.0 01:52:51 10° N 01:55:55 15° NNE 01:58:59 10° ENE visible
25 Sep 3.1 03:35:49 10° NNW 03:41:18 50° NE 03:46:47 10° SE visible
25 Sep 2.5 18:30:45 10° S 18:35:57 42° ESE 18:41:11 10° NE visible
25 Sep 3.5 20:14:42 10° WSW 20:19:56 39° NW 20:25:12 10° NNE visible
25 Sep 5.1 22:03:14 10° NW 22:05:34 12° NNW 22:07:55 10° N visible
26 Sep 5.0 01:36:24 10° N 01:39:18 14° NNE 01:42:12 10° ENE visible
26 Sep 3.2 03:19:17 10° NNW 03:24:45 47° NE 03:30:11 10° SE visible
26 Sep 2.8 05:03:30 10° NW 05:08:34 35° WSW 05:13:37 10° S visible
26 Sep 2.6 18:14:19 10° S 18:19:27 39° ESE 18:24:37 10° NE visible
26 Sep 3.4 19:58:05 10° WSW 20:03:22 42° NW 20:08:42 10° NNE visible
26 Sep 5.1 21:46:24 10° NW 21:48:56 13° NNW 21:51:28 10° N visible
27 Sep 5.1 01:19:57 10° N 01:22:40 13° NNE 01:25:24 10° ENE visible
27 Sep 3.3 03:02:47 10° NNW 03:08:12 44° NE 03:13:35 10° SE visible
27 Sep 2.7 04:46:55 10° NW 04:52:04 37° WSW 04:57:13 10° S visible
27 Sep 2.7 17:57:55 10° S 18:02:57 36° ESE 18:08:02 10° NE visible
27 Sep 3.3 19:41:28 10° SW 19:46:48 44° NW 19:52:12 10° NNE visible
27 Sep 5.1 21:29:35 10° WNW 21:32:18 14° NNW 21:35:03 10° N visible
28 Sep 5.1 01:03:31 10° N 01:06:03 13° NNE 01:08:35 10° NE visible
28 Sep 3.4 02:46:16 10° NNW 02:51:38 41° NE 02:56:58 10° ESE visible
28 Sep 2.6 04:30:21 10° NW 04:35:35 40° WSW 04:40:48 10° S visible
28 Sep 3.2 19:24:52 10° SW 19:30:14 47° NW 19:35:41 10° NNE visible
28 Sep 5.0 21:12:47 10° WNW 21:15:41 14° NNW 21:18:36 10° N visible
29 Sep 5.1 00:47:05 10° N 00:49:25 12° NNE 00:51:45 10° NE visible
29 Sep 3.5 02:29:46 10° NNW 02:35:04 39° NE 02:40:21 10° ESE visible
29 Sep 2.5 04:13:46 10° NW 04:19:04 43° WSW 04:24:23 10° S visible
29 Sep 3.1 19:08:16 10° SW 19:13:41 50° NW 19:19:10 10° NNE visible
29 Sep 5.0 20:55:59 10° WNW 20:59:03 15° NNW 21:02:09 10° N visible
30 Sep 5.1 00:30:40 10° N 00:32:47 12° NNE 00:34:54 10° NE visible
30 Sep 3.5 02:13:16 10° NNW 02:18:30 37° NE 02:23:43 10° ESE visible
30 Sep 2.4 03:57:12 10° NW 04:02:35 46° WSW 04:07:57 10° S visible
30 Sep 3.0 18:51:40 10° SW 18:57:08 54° NW 19:02:39 10° NNE visible
30 Sep 4.9 20:39:12 10° WNW 20:42:26 15° NNW 20:45:41 10° N visible
01 Oct 5.1 00:14:16 10° N 00:16:09 12° NNE 00:18:02 10° NE visible
01 Oct 3.6 01:56:45 10° NNW 02:01:56 35° NE 02:07:05 10° ESE visible
01 Oct 2.3 03:40:38 10° NW 03:46:04 49° WSW 03:51:30 10° S visible
01 Oct 2.9 18:35:05 10° SW 18:40:35 57° NW 18:46:08 10° NNE visible
01 Oct 4.9 20:22:25 10° WNW 20:25:49 16° NNW 20:29:13 10° N visible
01 Oct 5.1 23:57:53 10° N 23:59:31 11° NNE 00:01:08 10° NE visible
02 Oct 3.7 01:40:15 10° NNW 01:45:21 33° NE 01:50:26 10° ESE visible
02 Oct 2.2 03:24:04 10° NW 03:29:33 53° WSW 03:35:02 10° S visible
02 Oct 2.8 18:18:30 10° SW 18:24:02 61° WNW 18:29:37 10° NNE visible
02 Oct 4.8 20:05:40 10° WNW 20:09:11 17° NW 20:12:45 10° N visible
02 Oct 5.1 23:41:32 10° N 23:42:52 11° NNE 23:44:11 10° NE visible
03 Oct 4.1 01:23:45 10° NNW 01:26:54 26° NNE 01:26:54 26° NNE visible
03 Oct 4.2 03:07:31 10° NW 03:19:06 - S 03:08:26 15° NW visible
03 Oct 2.7 18:01:56 10° SW 18:07:29 65° WNW 18:13:06 10° NNE visible
03 Oct 4.8 19:48:54 10° WNW 19:52:35 17° NW 19:56:17 10° N visible
03 Oct 5.1 23:25:16 10° N 23:26:13 10° NNE 23:27:10 10° NNE visible
